Time,TemperatureF,DewpointF,PressureIn,WindDirection,WindDirectionDegrees,WindSpeedMPH,WindSpeedGustMPH,Humidity,HourlyPrecipIn,Conditions,Clouds,dailyrainin,SoftwareType,DateUTC
2013-02-23 00:03:00,31.0,25.0,30.31,SSW,199,0.0,-999.0,77,-99.99,,,-99.99,,2013-02-23 05:03:00,
2013-02-23 00:12:00,31.0,25.0,30.31,SSW,199,0.0,-999.0,77,-99.99,,,-99.99,,2013-02-23 05:12:00,
2013-02-23 00:23:00,31.0,25.0,30.31,SSW,198,0.0,-999.0,77,-99.99,,,-99.99,,2013-02-23 05:23:00,
2013-02-23 00:33:00,31.0,25.0,30.31,SSW,198,0.0,-999.0,78,-99.99,,,-99.99,,2013-02-23 05:33:00,
2013-02-23 00:42:00,31.0,25.0,30.31,SSW,198,0.0,-999.0,78,-99.99,,,-99.99,,2013-02-23 05:42:00,
2013-02-23 00:52:00,31.0,25.0,30.31,SSW,198,0.0,-999.0,78,-99.99,,,-99.99,,2013-02-23 05:52:00,
2013-02-23 01:02:00,31.0,25.0,30.30,SSW,197,0.0,-999.0,78,-99.99,,,-99.99,,2013-02-23 06:02:00,
2013-02-23 01:11:00,31.0,25.0,30.30,SSW,197,0.0,-999.0,78,-99.99,,,-99.99,,2013-02-23 06:11:00,
2013-02-23 01:22:00,31.0,25.0,30.30,SSW,197,0.0,-999.0,79,-99.99,,,-99.99,,2013-02-23 06:22:00,
2013-02-23 01:32:00,31.0,25.0,30.30,SSW,197,0.0,-999.0,79,-99.99,,,-99.99,,2013-02-23 06:32:00,
2013-02-23 01:42:00,31.0,25.0,30.30,SSW,197,0.0,-999.0,79,-99.99,,,-99.99,,2013-02-23 06:42:00,
2013-02-23 01:51:00,31.0,25.0,30.29,SSW,197,0.0,-999.0,79,-99.99,,,-99.99,,2013-02-23 06:51:00,
2013-02-23 02:01:00,31.0,25.0,30.29,SSW,197,0.0,-999.0,79,-99.99,,,-99.99,,2013-02-23 07:01:00,
2013-02-23 02:11:00,31.0,25.0,30.29,SSW,197,0.0,-999.0,79,-99.99,,,-99.99,,2013-02-23 07:11:00,
2013-02-23 02:21:00,31.0,25.0,30.29,SSW,197,0.0,-999.0,79,-99.99,,,-99.99,,2013-02-23 07:21:00,
2013-02-23 02:32:00,31.0,25.0,30.29,SSW,197,0.0,-999.0,79,-99.99,,,-99.99,,2013-02-23 07:32:00,
2013-02-23 02:42:00,31.0,25.0,30.29,SSW,197,0.0,-999.0,79,-99.99,,,-99.99,,2013-02-23 07:42:00,
2013-02-23 02:52:00,31.0,25.0,30.28,SSW,197,0.0,-999.0,79,-99.99,,,-99.99,,2013-02-23 07:52:00,
2013-02-23 03:01:00,31.0,25.0,30.27,SSW,197,0.0,-999.0,79,-99.99,,,-99.99,,2013-02-23 08:01:00,
2013-02-23 03:11:00,31.0,25.0,30.27,SSW,197,0.0,-999.0,79,-99.99,,,-99.99,,2013-02-23 08:11:00,
2013-02-23 03:21:00,31.0,26.0,30.27,SSW,197,0.0,-999.0,80,-99.99,,,-99.99,,2013-02-23 08:21:00,
2013-02-23 03:32:00,31.0,26.0,30.25,SSW,195,0.0,-999.0,80,-99.99,,,-99.99,,2013-02-23 08:32:00,
2013-02-23 03:42:00,31.0,26.0,30.25,SSW,195,0.0,-999.0,80,-99.99,,,-99.99,,2013-02-23 08:42:00,
2013-02-23 03:52:00,31.0,26.0,30.25,SSW,195,0.0,-999.0,80,-99.99,,,-99.99,,2013-02-23 08:52:00,
2013-02-23 04:02:00,31.0,26.0,30.24,SSW,195,0.0,-999.0,81,-99.99,,,-99.99,,2013-02-23 09:02:00,
2013-02-23 04:11:00,31.0,26.0,30.24,SSW,195,0.0,-999.0,81,-99.99,,,-99.99,,2013-02-23 09:11:00,
2013-02-23 04:22:00,31.0,26.0,30.24,SSW,195,0.0,-999.0,81,-99.99,,,-99.99,,2013-02-23 09:22:00,
2013-02-23 04:32:00,31.0,26.0,30.25,SSW,195,0.0,-999.0,81,-99.99,,,-99.99,,2013-02-23 09:32:00,
2013-02-23 04:42:00,31.0,26.0,30.25,SSW,195,0.0,-999.0,81,-99.99,,,-99.99,,2013-02-23 09:42:00,
2013-02-23 04:52:00,31.0,26.0,30.24,SSW,195,0.0,-999.0,81,-99.99,,,-99.99,,2013-02-23 09:52:00,
2013-02-23 05:01:00,31.0,26.0,30.24,SSW,195,0.0,-999.0,82,-99.99,,,-99.99,,2013-02-23 10:01:00,
2013-02-23 05:11:00,31.0,26.0,30.24,SSW,195,0.0,-999.0,82,-99.99,,,-99.99,,2013-02-23 10:11:00,
2013-02-23 05:21:00,31.0,26.0,30.24,SSW,195,0.0,-999.0,82,-99.99,,,-99.99,,2013-02-23 10:21:00,
2013-02-23 05:32:00,31.0,26.0,30.23,SSW,195,0.0,-999.0,82,-99.99,,,-99.99,,2013-02-23 10:32:00,
2013-02-23 05:42:00,31.0,26.0,30.23,SSW,195,0.0,-999.0,82,-99.99,,,-99.99,,2013-02-23 10:42:00,
2013-02-23 05:51:00,31.0,26.0,30.23,SSW,195,0.0,-999.0,82,-99.99,,,-99.99,,2013-02-23 10:51:00,
2013-02-23 06:02:00,31.0,26.0,30.22,SSW,195,0.0,-999.0,83,-99.99,,,-99.99,,2013-02-23 11:02:00,
2013-02-23 06:11:00,31.0,26.0,30.22,SSW,195,0.0,-999.0,83,-99.99,,,-99.99,,2013-02-23 11:11:00,
2013-02-23 06:22:00,31.0,26.0,30.22,SSW,195,0.0,-999.0,83,-99.99,,,-99.99,,2013-02-23 11:22:00,
2013-02-23 06:32:00,31.0,26.0,30.21,SSW,195,0.0,-999.0,83,-99.99,,,-99.99,,2013-02-23 11:32:00,
2013-02-23 06:42:00,31.0,26.0,30.21,SSW,195,0.0,-999.0,83,-99.99,,,-99.99,,2013-02-23 11:42:00,
2013-02-23 06:52:00,31.0,26.0,30.21,SSW,195,0.0,-999.0,83,-99.99,,,-99.99,,2013-02-23 11:52:00,
2013-02-23 07:02:00,31.0,27.0,30.21,ESE,120,0.0,-999.0,84,-99.99,,,-99.99,,2013-02-23 12:02:00,
2013-02-23 07:11:00,31.0,27.0,30.21,ESE,120,0.0,-999.0,84,-99.99,,,-99.99,,2013-02-23 12:11:00,
2013-02-23 07:21:00,31.0,27.0,30.21,ESE,120,0.0,-999.0,84,-99.99,,,-99.99,,2013-02-23 12:21:00,
2013-02-23 07:32:00,31.0,27.0,30.21,ESE,120,0.0,-999.0,85,-99.99,,,-99.99,,2013-02-23 12:32:00,
2013-02-23 07:42:00,31.0,27.0,30.21,ESE,120,0.0,-999.0,85,-99.99,,,-99.99,,2013-02-23 12:42:00,
2013-02-23 07:52:00,31.0,27.0,30.21,ESE,120,0.0,-999.0,86,-99.99,,,-99.99,,2013-02-23 12:52:00,
2013-02-23 08:02:00,31.0,27.0,30.21,ESE,120,0.0,-999.0,86,-99.99,,,-99.99,,2013-02-23 13:02:00,
2013-02-23 08:12:00,31.0,27.0,30.21,ESE,120,0.0,-999.0,86,-99.99,,,-99.99,,2013-02-23 13:12:00,
2013-02-23 08:21:00,32.0,29.0,30.19,ESE,120,0.0,-999.0,89,-99.99,,,-99.99,,2013-02-23 13:21:00,
2013-02-23 08:22:00,32.0,29.0,30.20,ESE,120,0.0,-999.0,87,-99.99,,,-99.99,,2013-02-23 13:22:00,
2013-02-23 08:32:00,32.0,29.0,30.20,ESE,120,0.0,-999.0,88,-99.99,,,-99.99,,2013-02-23 13:32:00,
2013-02-23 08:42:00,32.0,29.0,30.20,ESE,120,0.0,-999.0,88,-99.99,,,-99.99,,2013-02-23 13:42:00,
2013-02-23 08:52:00,32.0,29.0,30.19,ESE,120,0.0,-999.0,89,-99.99,,,-99.99,,2013-02-23 13:52:00,
2013-02-23 09:02:00,32.0,29.0,30.19,ESE,120,0.0,-999.0,89,-99.99,,,-99.99,,2013-02-23 14:02:00,
2013-02-23 09:11:00,32.0,29.0,30.19,ESE,120,0.0,-999.0,89,-99.99,,,-99.99,,2013-02-23 14:11:00,
2013-02-23 09:33:00,32.0,29.0,30.18,ESE,122,0.0,-999.0,90,-99.99,,,-99.99,,2013-02-23 14:33:00,
2013-02-23 09:42:00,32.0,29.0,30.18,ESE,122,0.0,-999.0,90,-99.99,,,-99.99,,2013-02-23 14:42:00,
2013-02-23 09:52:00,32.0,30.0,30.17,ESE,122,0.0,-999.0,91,-99.99,,,-99.99,,2013-02-23 14:52:00,
2013-02-23 10:02:00,32.0,30.0,30.17,ESE,121,0.0,-999.0,91,-99.99,,,-99.99,,2013-02-23 15:02:00,
2013-02-23 10:11:00,32.0,30.0,30.17,ESE,121,0.0,-999.0,91,-99.99,,,-99.99,,2013-02-23 15:11:00,
2013-02-23 10:22:00,32.0,30.0,30.16,ESE,122,0.0,-999.0,91,-99.99,,,-99.99,,2013-02-23 15:22:00,
2013-02-23 10:32:00,33.0,31.0,30.16,ESE,122,0.0,-999.0,91,-99.99,,,-99.99,,2013-02-23 15:32:00,
2013-02-23 10:42:00,33.0,31.0,30.16,ESE,122,0.0,-999.0,91,-99.99,,,-99.99,,2013-02-23 15:42:00,
2013-02-23 10:52:00,33.0,31.0,30.15,ESE,123,0.0,-999.0,92,-99.99,,,-99.99,,2013-02-23 15:52:00,
2013-02-23 11:01:00,33.0,31.0,30.14,ESE,120,0.0,-999.0,92,-99.99,,,-99.99,,2013-02-23 16:01:00,
2013-02-23 11:11:00,33.0,31.0,30.14,ESE,120,0.0,-999.0,92,-99.99,,,-99.99,,2013-02-23 16:11:00,
2013-02-23 11:21:00,33.0,31.0,30.13,ESE,120,0.0,-999.0,92,-99.99,,,-99.99,,2013-02-23 16:21:00,
2013-02-23 11:32:00,34.0,32.0,30.12,SE,124,0.0,-999.0,92,-99.99,,,-99.99,,2013-02-23 16:32:00,
2013-02-23 11:42:00,34.0,32.0,30.12,SE,124,0.0,-999.0,92,-99.99,,,-99.99,,2013-02-23 16:42:00,
2013-02-23 11:51:00,34.0,32.0,30.12,SE,124,0.0,-999.0,92,-99.99,,,-99.99,,2013-02-23 16:51:00,
2013-02-23 12:01:00,34.0,32.0,30.11,SE,124,0.0,-999.0,92,-99.99,,,-99.99,,2013-02-23 17:01:00,
2013-02-23 12:11:00,34.0,32.0,30.11,SE,124,0.0,-999.0,92,-99.99,,,-99.99,,2013-02-23 17:11:00,
2013-02-23 12:22:00,34.0,32.0,30.11,SE,124,0.0,-999.0,92,-99.99,,,-99.99,,2013-02-23 17:22:00,
2013-02-23 12:32:00,34.0,32.0,30.11,SE,124,0.0,-999.0,92,-99.99,,,-99.99,,2013-02-23 17:32:00,
2013-02-23 12:52:00,35.0,33.0,30.09,ESE,121,0.0,-999.0,92,-99.99,,,-99.99,,2013-02-23 17:52:00,
2013-02-23 13:02:00,35.0,33.0,30.09,SE,125,0.0,-999.0,92,-99.99,,,-99.99,,2013-02-23 18:02:00,
2013-02-23 13:12:00,35.0,33.0,30.09,SE,125,0.0,-999.0,92,-99.99,,,-99.99,,2013-02-23 18:12:00,
2013-02-23 13:22:00,35.0,33.0,30.08,SE,134,0.0,-999.0,92,-99.99,,,-99.99,,2013-02-23 18:22:00,
2013-02-23 13:32:00,35.0,33.0,30.07,SE,130,0.0,-999.0,93,-99.99,,,-99.99,,2013-02-23 18:32:00,
2013-02-23 13:42:00,35.0,33.0,30.07,SE,130,0.0,-999.0,93,-99.99,,,-99.99,,2013-02-23 18:42:00,
2013-02-23 13:52:00,35.0,33.0,30.07,East,100,0.0,-999.0,93,-99.99,,,-99.99,,2013-02-23 18:52:00,
2013-02-23 14:01:00,35.0,33.0,30.07,East,100,0.0,-999.0,93,-99.99,,,-99.99,,2013-02-23 19:01:00,
2013-02-23 14:11:00,35.0,33.0,30.07,SE,127,0.0,-999.0,92,-99.99,,,-99.99,,2013-02-23 19:11:00,
2013-02-23 14:21:00,35.0,33.0,30.07,SE,127,0.0,-999.0,92,-99.99,,,-99.99,,2013-02-23 19:21:00,
2013-02-23 14:32:00,35.0,33.0,30.06,East,93,0.0,-999.0,92,-99.99,,,-99.99,,2013-02-23 19:32:00,
2013-02-23 14:42:00,35.0,33.0,30.06,East,93,0.0,-999.0,92,-99.99,,,-99.99,,2013-02-23 19:42:00,
2013-02-23 14:51:00,35.0,33.0,30.05,ESE,120,0.0,-999.0,92,-99.99,,,-99.99,,2013-02-23 19:51:00,
2013-02-23 14:52:00,35.0,33.0,30.06,ESE,108,0.0,-999.0,92,-99.99,,,-99.99,,2013-02-23 19:52:00,
2013-02-23 15:01:00,35.0,33.0,30.06,South,169,1.0,-999.0,92,-99.99,,,-99.99,,2013-02-23 20:01:00,
2013-02-23 15:11:00,35.0,33.0,30.06,South,169,1.0,-999.0,92,-99.99,,,-99.99,,2013-02-23 20:11:00,
2013-02-23 15:21:00,35.0,33.0,30.05,ESE,120,0.0,-999.0,92,-99.99,,,-99.99,,2013-02-23 20:21:00,
2013-02-23 15:32:00,35.0,33.0,30.05,ESE,120,0.0,-999.0,92,-99.99,,,-99.99,,2013-02-23 20:32:00,
2013-02-23 15:42:00,35.0,33.0,30.05,ESE,120,0.0,-999.0,92,-99.99,,,-99.99,,2013-02-23 20:42:00,
2013-02-23 15:51:00,35.0,33.0,30.03,SE,139,0.0,-999.0,92,-99.99,,,-99.99,,2013-02-23 20:51:00,
2013-02-23 16:02:00,35.0,33.0,30.03,ENE,73,0.0,-999.0,92,-99.99,,,-99.99,,2013-02-23 21:02:00,
2013-02-23 16:11:00,35.0,33.0,30.03,SE,139,0.0,-999.0,92,-99.99,,,-99.99,,2013-02-23 21:11:00,
2013-02-23 16:22:00,35.0,33.0,30.03,SE,139,0.0,-999.0,92,-99.99,,,-99.99,,2013-02-23 21:22:00,
2013-02-23 16:32:00,35.0,33.0,30.03,SE,139,0.0,-999.0,92,-99.99,,,-99.99,,2013-02-23 21:32:00,
2013-02-23 16:42:00,35.0,33.0,30.03,SE,139,0.0,-999.0,92,-99.99,,,-99.99,,2013-02-23 21:42:00,
2013-02-23 17:02:00,34.0,32.0,30.03,ESE,116,0.0,-999.0,92,-99.99,,,-99.99,,2013-02-23 22:02:00,
2013-02-23 17:11:00,34.0,32.0,30.03,ESE,116,0.0,-999.0,92,-99.99,,,-99.99,,2013-02-23 22:11:00,
2013-02-23 17:22:00,34.0,32.0,30.03,ESE,116,0.0,-999.0,92,-99.99,,,-99.99,,2013-02-23 22:22:00,
2013-02-23 17:32:00,34.0,32.0,30.01,ENE,75,0.0,-999.0,92,-99.99,,,-99.99,,2013-02-23 22:32:00,
2013-02-23 17:42:00,34.0,32.0,30.01,ENE,75,0.0,-999.0,92,-99.99,,,-99.99,,2013-02-23 22:42:00,
2013-02-23 17:52:00,34.0,32.0,30.00,SE,133,0.0,-999.0,92,-99.99,,,-99.99,,2013-02-23 22:52:00,
2013-02-23 18:01:00,34.0,32.0,30.00,SE,131,0.0,-999.0,93,-99.99,,,-99.99,,2013-02-23 23:01:00,
2013-02-23 18:11:00,34.0,32.0,30.00,ENE,75,0.0,-999.0,93,-99.99,,,-99.99,,2013-02-23 23:11:00,
2013-02-23 18:21:00,34.0,32.0,30.00,ENE,75,0.0,-999.0,93,-99.99,,,-99.99,,2013-02-23 23:21:00,
2013-02-23 18:32:00,34.0,32.0,30.00,ENE,75,0.0,-999.0,93,-99.99,,,-99.99,,2013-02-23 23:32:00,
2013-02-23 18:42:00,34.0,32.0,30.00,ENE,75,0.0,-999.0,93,-99.99,,,-99.99,,2013-02-23 23:42:00,
2013-02-23 18:52:00,34.0,32.0,29.98,ENE,66,0.0,-999.0,92,-99.99,,,-99.99,,2013-02-23 23:52:00,
2013-02-23 19:02:00,33.0,31.0,29.98,East,88,0.0,-999.0,93,-99.99,,,-99.99,,2013-02-24 00:02:00,
2013-02-23 19:11:00,33.0,31.0,29.98,East,88,0.0,-999.0,93,-99.99,,,-99.99,,2013-02-24 00:11:00,
2013-02-23 19:22:00,33.0,31.0,29.98,East,82,1.0,-999.0,93,-99.99,,,-99.99,,2013-02-24 00:22:00,
2013-02-23 19:32:00,33.0,31.0,29.98,NE,47,1.0,-999.0,93,-99.99,,,-99.99,,2013-02-24 00:32:00,
2013-02-23 19:42:00,33.0,31.0,29.98,NE,47,1.0,-999.0,93,-99.99,,,-99.99,,2013-02-24 00:42:00,
2013-02-23 19:52:00,33.0,31.0,29.98,ENE,73,1.0,-999.0,92,-99.99,,,-99.99,,2013-02-24 00:52:00,
2013-02-23 20:01:00,33.0,31.0,29.97,East,88,1.0,-999.0,92,-99.99,,,-99.99,,2013-02-24 01:01:00,
2013-02-23 20:11:00,33.0,31.0,29.97,East,88,1.0,-999.0,92,-99.99,,,-99.99,,2013-02-24 01:11:00,
2013-02-23 20:22:00,33.0,31.0,29.97,ENE,75,1.0,-999.0,92,-99.99,,,-99.99,,2013-02-24 01:22:00,
2013-02-23 20:32:00,33.0,31.0,29.96,ESE,112,0.0,-999.0,92,-99.99,,,-99.99,,2013-02-24 01:32:00,
2013-02-23 20:42:00,33.0,31.0,29.96,ESE,112,0.0,-999.0,92,-99.99,,,-99.99,,2013-02-24 01:42:00,
2013-02-23 20:51:00,33.0,31.0,29.96,ENE,68,1.0,-999.0,92,-99.99,,,-99.99,,2013-02-24 01:51:00,
2013-02-23 21:01:00,33.0,31.0,29.95,ENE,73,1.0,-999.0,92,-99.99,,,-99.99,,2013-02-24 02:01:00,
2013-02-23 21:11:00,33.0,31.0,29.95,ENE,73,1.0,-999.0,92,-99.99,,,-99.99,,2013-02-24 02:11:00,
2013-02-23 21:22:00,32.0,30.0,29.93,ENE,65,0.0,-999.0,92,-99.99,,,-99.99,,2013-02-24 02:22:00,
2013-02-23 21:32:00,32.0,30.0,29.93,NE,56,1.0,-999.0,92,-99.99,,,-99.99,,2013-02-24 02:32:00,
2013-02-23 21:42:00,32.0,30.0,29.93,NE,56,1.0,-999.0,92,-99.99,,,-99.99,,2013-02-24 02:42:00,
2013-02-23 21:52:00,32.0,30.0,29.93,NE,56,1.0,-999.0,92,-99.99,,,-99.99,,2013-02-24 02:52:00,
2013-02-23 22:02:00,32.0,30.0,29.91,East,79,1.0,-999.0,92,-99.99,,,-99.99,,2013-02-24 03:02:00,
2013-02-23 22:12:00,32.0,30.0,29.91,ENE,64,1.0,-999.0,93,-99.99,,,-99.99,,2013-02-24 03:12:00,
2013-02-23 22:22:00,32.0,30.0,29.91,ENE,64,1.0,-999.0,93,-99.99,,,-99.99,,2013-02-24 03:22:00,
2013-02-23 22:32:00,32.0,30.0,29.90,NNE,32,3.0,-999.0,93,-99.99,,,-99.99,,2013-02-24 03:32:00,
2013-02-23 22:42:00,32.0,30.0,29.90,NNE,32,3.0,-999.0,93,-99.99,,,-99.99,,2013-02-24 03:42:00,
2013-02-23 22:52:00,32.0,30.0,29.89,NE,40,3.0,-999.0,93,-99.99,,,-99.99,,2013-02-24 03:52:00,
2013-02-23 23:02:00,32.0,30.0,29.89,ENE,62,4.0,-999.0,93,-99.99,,,-99.99,,2013-02-24 04:02:00,
2013-02-23 23:11:00,32.0,30.0,29.89,ENE,62,4.0,-999.0,93,-99.99,,,-99.99,,2013-02-24 04:11:00,
2013-02-23 23:21:00,32.0,30.0,29.88,ENE,59,3.0,-999.0,93,-99.99,,,-99.99,,2013-02-24 04:21:00,
2013-02-23 23:32:00,32.0,30.0,29.86,NE,37,3.0,-999.0,93,-99.99,,,-99.99,,2013-02-24 04:32:00,
2013-02-23 23:42:00,32.0,30.0,29.86,NE,37,3.0,-999.0,93,-99.99,,,-99.99,,2013-02-24 04:42:00,
2013-02-23 23:52:00,32.0,30.0,29.86,NE,37,3.0,-999.0,93,-99.99,,,-99.99,,2013-02-24 04:52:00,